TimeCST,TemperatureF,Dew PointF,Humidity,Sea Level PressureIn,VisibilityMPH,Wind Direction,Wind SpeedMPH,Gust SpeedMPH,PrecipitationIn,Events,Conditions,WindDirDegrees,DateUTC
12:56 AM,55.9,52.0,87,30.02,10.0,SE,4.6,-,N/A,,Overcast,130,2012-12-07 06:56:00
1:56 AM,55.9,52.0,87,30.01,10.0,SE,3.5,-,N/A,,Overcast,130,2012-12-07 07:56:00
2:56 AM,55.9,53.1,90,30.01,10.0,Calm,Calm,-,N/A,,Overcast,0,2012-12-07 08:56:00
3:56 AM,57.0,54.0,89,30.01,10.0,ESE,5.8,-,N/A,,Overcast,110,2012-12-07 09:56:00
4:56 AM,55.9,53.1,90,30.02,10.0,ESE,5.8,-,N/A,,Overcast,120,2012-12-07 10:56:00
5:56 AM,55.9,53.1,90,30.03,10.0,ESE,4.6,-,N/A,,Mostly Cloudy,120,2012-12-07 11:56:00
6:03 AM,55.4,53.6,94,30.00,10.0,ESE,5.8,-,N/A,,Mostly Cloudy,110,2012-12-07 12:03:00
6:26 AM,55.4,53.6,94,30.01,9.0,ESE,4.6,-,N/A,,Mostly Cloudy,120,2012-12-07 12:26:00
6:53 AM,55.4,53.6,94,30.01,9.0,ESE,3.5,-,N/A,,Overcast,120,2012-12-07 12:53:00
6:56 AM,55.9,54.0,93,30.04,8.0,ESE,3.5,-,N/A,,Overcast,110,2012-12-07 12:56:00
7:56 AM,57.0,55.0,93,30.05,6.0,SE,6.9,-,N/A,,Overcast,130,2012-12-07 13:56:00
8:56 AM,57.9,55.0,90,30.06,6.0,SE,6.9,-,N/A,,Overcast,130,2012-12-07 14:56:00
9:56 AM,60.1,55.9,86,30.06,7.0,SE,5.8,-,N/A,,Overcast,130,2012-12-07 15:56:00
10:56 AM,62.1,57.0,84,30.03,9.0,SSE,4.6,-,N/A,,Overcast,150,2012-12-07 16:56:00
11:25 AM,62.6,57.2,82,29.99,9.0,Variable,4.6,-,N/A,,Overcast,0,2012-12-07 17:25:00
11:39 AM,62.6,57.2,82,29.98,9.0,SE,5.8,-,N/A,,Overcast,140,2012-12-07 17:39:00
11:56 AM,63.0,57.9,84,30.01,9.0,SE,5.8,-,N/A,,Overcast,130,2012-12-07 17:56:00
12:56 PM,66.9,59.0,76,29.98,10.0,ESE,8.1,-,N/A,,Mostly Cloudy,110,2012-12-07 18:56:00
1:56 PM,66.9,59.0,76,29.96,10.0,SSE,6.9,-,N/A,,Mostly Cloudy,160,2012-12-07 19:56:00
2:39 PM,66.2,59.0,78,29.93,10.0,SSE,5.8,-,N/A,,Mostly Cloudy,150,2012-12-07 20:39:00
2:56 PM,66.9,59.0,76,29.96,10.0,SE,6.9,-,N/A,,Mostly Cloudy,140,2012-12-07 20:56:00
3:56 PM,66.0,59.0,78,29.95,10.0,SSE,5.8,-,N/A,,Mostly Cloudy,150,2012-12-07 21:56:00
4:56 PM,63.0,59.0,87,29.96,10.0,SE,3.5,-,N/A,,Mostly Cloudy,140,2012-12-07 22:56:00
5:56 PM,62.1,59.0,90,29.96,9.0,SE,3.5,-,N/A,,Clear,130,2012-12-07 23:56:00
6:56 PM,60.1,57.9,93,29.97,6.0,SE,3.5,-,N/A,,Clear,140,2012-12-08 00:56:00
7:56 PM,57.9,55.9,93,29.99,5.0,Calm,Calm,-,N/A,,Partly Cloudy,0,2012-12-08 01:56:00
8:38 PM,57.2,55.4,94,29.97,1.8,Calm,Calm,-,N/A,,Clear,0,2012-12-08 02:38:00
8:52 PM,57.2,55.4,94,29.97,0.8,SE,3.5,-,N/A,,Partly Cloudy,130,2012-12-08 02:52:00
8:56 PM,57.9,57.0,97,30.00,0.5,SE,3.5,-,N/A,Fog,Fog,130,2012-12-08 02:56:00
9:05 PM,57.2,57.2,100,29.97,1.0,East,3.5,-,N/A,,Scattered Clouds,100,2012-12-08 03:05:00
9:19 PM,57.2,55.4,94,29.97,2.0,Calm,Calm,-,N/A,,Mostly Cloudy,0,2012-12-08 03:19:00
9:27 PM,57.2,55.4,94,29.97,1.2,Calm,Calm,-,N/A,,Scattered Clouds,0,2012-12-08 03:27:00
9:41 PM,57.2,55.4,94,29.97,3.0,SE,4.6,-,N/A,,Partly Cloudy,130,2012-12-08 03:41:00
9:47 PM,57.2,55.4,94,29.97,1.8,SE,3.5,-,N/A,,Partly Cloudy,140,2012-12-08 03:47:00
9:56 PM,57.9,57.0,97,30.00,1.0,Calm,Calm,-,N/A,,Scattered Clouds,0,2012-12-08 03:56:00
10:14 PM,57.2,57.2,100,29.97,2.0,ESE,3.5,-,N/A,,Mostly Cloudy,120,2012-12-08 04:14:00
10:22 PM,59.0,57.2,94,29.97,2.5,Calm,Calm,-,N/A,,Overcast,0,2012-12-08 04:22:00
10:29 PM,57.2,57.2,100,29.97,3.0,Calm,Calm,-,N/A,,Overcast,0,2012-12-08 04:29:00
10:44 PM,59.0,57.2,94,29.97,3.0,Calm,Calm,-,N/A,,Overcast,0,2012-12-08 04:44:00
10:56 PM,59.0,57.9,96,30.00,3.0,ESE,3.5,-,N/A,,Overcast,120,2012-12-08 04:56:00
11:09 PM,59.0,57.2,94,29.97,4.0,ESE,3.5,-,N/A,,Overcast,110,2012-12-08 05:09:00
11:31 PM,59.0,57.2,94,29.97,3.0,Calm,Calm,-,N/A,,Overcast,0,2012-12-08 05:31:00
11:56 PM,60.1,57.9,93,29.99,3.0,Calm,Calm,-,N/A,,Overcast,0,2012-12-08 05:56:00